Location: *
(57.8420°S, 159.8600°W)
Time: 11:42:19
(UTC+00:00)

NOAA 6 - Pass Details

Date: 18 May 2021
Orbit: 773 x 786 km, 98.7° (Epoch: 22 June)

Event Time Altitude Azimuth Distance (km) Brightness Sun altitude
Exits shadow 05:37:39 12° 166° (SSE) 2,231 6.3 -24.7°
Maximum altitude 05:42:30 70° 248° (WSW) 841 4.2 -25.3°
Drops below altitude 10° 05:47:38 10° 330° (NNW) 2,340 6.8 -26.0°
Sets 05:49:56 0° 332° (NNW) 3,261 7.6 -26.3°
